Flag for U.S.A. Weather past 2 weeks in Knoxville, Tennessee, U.S.A.

Now
41 °F

Clear.


Feels Like: 41 °F
Forecast: 39 / 71 °F
Wind: No wind

Location: McGhee Tyson Airport

Current Time: Mar 31, 2015 at 5:44:11 AM

Latest Report: Mar 31, 2015 at 4:53 AM


Visibility: 10 mi

Pressure: 30.03 "Hg

Humidity: 74%

Dew point: 33 °F

Location of KnoxvilleLocation

Historic Weather in Knoxville — Graph

°F

Knoxville temperature yesterday

Maximum temperature yesterday: 67 °F (at 4:53 PM)
Minimum temperature yesterday: 46 °F (at 6:53 AM)
Average temperature yesterday: 55 °F

Past Weeks' High & Low Weather Summary

 TemperatureHumidityPressure
High77 °F (Mar 25, 3:53 PM)100% (Mar 19, 11:53 PM)30.40 "Hg (Mar 19, 11:53 PM)
Low26 °F (Mar 29, 5:53 AM)19% (Mar 29, 3:53 PM)29.67 "Hg (Mar 26, 5:53 PM)
Average54 °F63%30.07 "Hg
* Reported Mar 16 3:53 AM — Mar 31 3:53 AM, Knoxville, Weather by CustomWeather, © 2015

Note: Actual official high and low records may vary slightly from our data, if they occured in-between our weather recording intervals... More about our weather records

Advertising

Knoxville weather history for previous 24 hours

 ConditionsComfort  
Time TempWeatherWind HumidityBarometerVisibility
3:53 AM
Tue, Mar 31
47 °FClear.No wind54%30.04 "Hg10 mi
2:53 AM46 °FClear.No wind56%30.06 "Hg10 mi
1:53 AM48 °FClear.No wind50%30.08 "Hg10 mi
12:53 AM52 °FClear.No wind38%30.09 "Hg10 mi
11:53 PM
Mon, Mar 30
53 °FClear.No wind37%30.10 "Hg10 mi
10:53 PM54 °FClear.5 mph35%30.10 "Hg10 mi
9:53 PM56 °FClear.7 mph34%30.11 "Hg10 mi
8:53 PM60 °FSunny.9 mph26%30.08 "Hg10 mi
7:53 PM62 °FPassing clouds.9 mph25%30.05 "Hg10 mi
5:53 PM67 °FPassing clouds.13 mph21%30.02 "Hg10 mi
4:53 PM67 °FPassing clouds.8 mph23%30.04 "Hg10 mi
3:53 PM66 °FPassing clouds.10 mph26%30.06 "Hg10 mi
2:53 PM64 °FPassing clouds.12 mph29%30.08 "Hg10 mi
1:53 PM63 °FPassing clouds.13 mph40%30.11 "Hg10 mi
11:53 AM56 °FBroken clouds.8 mph70%30.15 "Hg10 mi
10:53 AM53 °FScattered clouds.9 mph80%30.15 "Hg10 mi
9:53 AM50 °FPassing clouds.10 mph89%30.13 "Hg10 mi
8:53 AM47 °FFog.8 mph93%30.12 "Hg5 mi
7:53 AM46 °FFog.7 mph93%30.11 "Hg4 mi
6:53 AM46 °FMostly cloudy.9 mph93%30.08 "Hg10 mi
5:53 AM47 °FLight rain. Mostly cloudy.13 mph90%30.07 "Hg8 mi
Weather by CustomWeather, © 2015

See weather overviewHow to use our weather pages